www.pogodaiklimat.ru
Время
и дата
02:21 30.12
02:53 30.12
03:48 30.12
03:53 30.12
04:53 30.12
05:53 30.12
06:53 30.12
07:53 30.12
08:53 30.12
09:53 30.12
10:33 30.12
10:53 30.12
11:53 30.12
12:53 30.12
13:53 30.12
14:53 30.12
15:53 30.12
16:53 30.12
17:53 30.12
18:53 30.12
19:53 30.12
20:53 30.12
21:53 30.12
22:48 30.12
22:53 30.12
22:59 30.12
23:53 30.12
00:53 31.12
01:24 31.12
01:53 31.12
02:34 31.12
02:53 31.12
03:53 31.12
04:53 31.12
05:40 31.12
05:53 31.12
06:53 31.12
07:53 31.12
08:53 31.12
09:53 31.12
10:28 31.12
10:53 31.12
11:53 31.12
12:53 31.12
13:37 31.12
13:49 31.12
13:53 31.12
14:53 31.12
Ветер
(напр.,м/с)
Видим. Явления Облачность Т
(С)
Тd
(С)
f
(%)
Тe
(С)
Тes
(С)
Комфортность P
(гПа)
Po
(гПа)
Тmin
(С)
Tmax
(С)
R
(мм)
R24
(мм)
S
(см)
СЗ 2 13 км 10/10 120 м +5.6 +5.6 100 +1 +1 1008.9
СЗ 2 13 км 10/10 120 м +5.6 +5.6 100 +1 +1 1012.6 1008.9
СЗ 2 16 км 10/10 150 м +6.0 +6.0 100 +2 +2 1008.9
СЗ 2 16 км 10/10 150 м +5.6 +5.6 100 +1 +1 1012.5 1008.9 +5.6 +7.2 3.0
З 2 16 км 10/10 210 м +5.6 +5.0 96 +1 +1 1012.3 1008.9
СЗ 3 16 км 10/10 210 м +5.0 +4.4 96 0 0 1012.2 1008.6
СЗ 2 16 км 10/10 240 м +5.0 +4.4 96 +1 +1 1012.9 1009.3
СЗ 2 16 км 10/10 240 м +5.0 +4.4 96 +1 +1 1013.4 1009.9
СЗ 1 16 км 10/10 240 м +5.6 +4.4 92 +2 +2 1013.8 1010.3
СЗ 2 16 км 10/10 300 м +6.1 +5.0 93 +2 +2 1014.7 1011.3 +5.0 +6.1
СЗ 2 16 км 10/10 330 м +6.7 +5.0 89 +3 +3 1010.6
штиль 0 16 км 5/5 1500 м +7.2 +5.0 86 +6 +9 1013.8 1010.3
СЗ 1 16 км ясно +9.4 +6.1 80 +7 +11 1012.3 1008.9
С 1 16 км ясно +10.6 +5.6 71 +9 +13 1012.1 1008.6
СЗ 1 16 км ясно +11.7 +6.1 68 +11 +16 1011.5 1007.9
нст 1 16 км ясно +12.2 +5.6 64 +11 +15 1011.2 1007.6
нст 1 16 км ясно +12.2 +5.6 64 +11 +13 1011.4 1007.9 +6.1 +12.8
С 1 16 км ясно +11.7 +5.6 66 +11 +11 1011.2 1007.6
С 1 16 км ясно +10.6 +6.1 74 +9 +9 1011.5 1007.9
штиль 0 16 км 2/0 3300 м
[Ac]
+8.9 +6.1 83 +8 +8 1011.2 1007.6
штиль 0 16 км ясно +7.8 +5.6 86 +7 +7 1011.4 1007.9
штиль 0 10 км дымка ясно +6.1 +5.6 97 +5 +5 1011.6 1008.3
штиль 0 8 км дымка ясно +5.6 +5.0 96 +4 +4 1011.9 1008.3 +5.0 +12.2
штиль 0 3 км дымка 5/5 990 м +4.0 +4.0 100 +3 +3 1008.3
штиль 0 2 км дымка 8/8 990 м +5.0 +5.0 100 +4 +4 1011.8 1008.3
штиль 0 5 км дымка 8/8 990 м +5.0 +5.0 100 +4 +4 1008.3
Ю 1 11 км 2/2 930 м +5.6 +5.0 96 +3 +3 1011.4 1007.9
штиль 0 11 км 10/10 900 м +5.6 +5.6 100 +4 +4 1011.7 1008.3
штиль 0 14 км 10/10 870 м +6.1 +6.1 100 +5 +5 1008.3
СЗ 1 16 км 10/10 870 м +7.8 +5.6 86 +5 +5 1011.8 1008.3
СЗ 1 16 км 10/10 900 м +7.8 +5.0 82 +5 +5 1008.3
СЗ 1 16 км 10/10 900 м +7.8 +5.0 82 +5 +5 1011.7 1008.3
С 1 16 км 10/10 1020 м +7.8 +5.0 82 +6 +6 1010.9 1007.2 +4.4 +7.8
СЗ 1 16 км 10/10 1170 м +7.2 +5.0 86 +4 +4 1010.6 1006.9
СЗ 1 16 км 8/8 810 м +5.6 +3.9 89 +2 +2 1006.9
СЗ 1 16 км 5/5 840 м +5.6 +4.4 92 +2 +2 1010.6 1006.9
СЗ 2 16 км 2/2 1020 м +4.4 +2.8 89 0 0 1010.9 1007.2
СЗ 2 16 км 2/2 750 м +4.4 +3.3 93 0 0 1011.4 1007.9
СЗ 2 16 км ясно +5.6 +3.9 89 +1 +1 1012.1 1008.6
СЗ 3 16 км ясно +7.2 +3.9 80 +3 +3 1012.5 1008.9 +3.9 +7.8
СЗ 2 16 км 8/8 570 м +7.8 +4.4 79 +4 +4 1008.9
СЗ 3 16 км 10/10 630 м +7.8 +4.4 79 +3 +3 1012.5 1008.9
СЗ 3 16 км 10/10 600 м +8.3 +4.4 76 +4 +4 1011.7 1008.3
СЗ 3 16 км 10/10 570 м +8.9 +5.0 77 +5 +5 1011.2 1007.6
З 2 16 км 10/10 600 м +9.4 +5.0 74 +6 +6 1007.2
СЗ 2 16 км 10/10 600 м +9.0 +6.0 81 +6 +6 1007.6
СЗ 3 16 км 10/10 600 м +9.4 +5.6 77 +6 +6 1011.2 1007.6
СЗ 3 16 км 5/5 540 м +9.4 +6.1 80 +5 +6 1011.6 1007.9
Местоположение метеостанции Modesto City-County Airport: широта 37.6242 долгота -120.9506 высота над уровнем моря 29 м.
В архиве по умолчанию представлена погода в Модесто за последние 1-2 суток. Обновление информации о фактической погоде в базе происходит ежечасно! Архивные данные за месяц целиком и за предыдущие месяцы Вы можете получить, выбрав интересующий диапазон дат из раскрывающегося списка и нажав кнопку "Ввод!".
Внимание! Архив погоды МЕТАР в базе сайта по станциям, не включенным в климатический монитор, хранится не более 60 дней. Нет смысла пытаться выбрать более раннюю дату.
*Определитесь, кто Вы:
Внимание! Время в таблицах - местное (без учета летнего времени). Для получения всемирного времени необходимо вычесть поправку, которая равна -8 ч.
Смотрите также архив погоды в соседних городах и на ближайших метеорологических станциях:
Партнеры нашего сайта:      
Пояснения к столбцам:
  • Ветер - указаны скорость ветра в м/с - средняя за 10 мин, порывы в срок и между сроками (в фигурных скобках) и направление, откуда дует ветер: С - северный,
  • СВ - северо-восточный, В - восточный, ЮВ - юго-восточный, Ю - южный, ЮЗ - юго-западный, З - западный, СЗ - северо-западный.
  • Видимость - горизонтальная дальность видимости в метрах или километрах. При видимости от 1 до 10 км при отсутствии осадков обычно наблюдается дымка, при ухудшении видимости до 1 км и менее - туман. В сухую погоду видимость может ухудшаться дымом, пылью или мглою.
  • Явления - указаны атмосферные явления, наблюдавшиеся в срок или в последний час перед сроком; фигурными скобками обозначены явления, наблюдавшиеся между сроками (за 1-3 часа до срока); квадратными скобками обозначены град или гололедные отложения с указанием их диаметра в мм.
  • Облачность - указаны через наклонную черту общая и нижняя облачность в баллах и высота нижней границы облаков в метрах; квадратными скобками обозначены формы облаков: Ci - перистые, Cs - перисто-слоистые, Cc - перисто-кучевые, Ac - высококучевые, As - высокослоистые, Sc - слоисто-кучевые, Ns - слоисто-дождевые, Cu - кучевые, Cb - кучево-дождевые. Подробнее классификацию облаков см. в Атласе облаков (PDF).
  • T - Температура воздуха - температура, измеренная на высоте 2 м над землей.
  • Td - Температура точки росы - температура, при понижении до которой содержащийся в воздухе водяной пар достигнет насыщения.
  • f - Относительная влажность воздуха - влажноcть воздуха, измеренная на высоте 2 м над землей.
  • Te - Эффективная температура - температура, которую ощущает одетый по сезону человек в тени. Характеристика душности погоды. При расчете учитывается влияние влажности воздуха и скорости ветра на теплоощущения человека.
  • Tes - Эффективная температура на солнце - температура, которую ощущает человек, с поправкой на солнечный нагрев. Характеристика знойности погоды. Зависит от высоты солнца над горизонтом, облачности и скорости ветра. Ночью, в пасмурную погоду, а также при ветре 12 м/с и более поправка равна нулю.
  • P - Атмосферное давление - приведенное к уровню моря атмосферное давление.
  • Po - Атмосферное давление - измеренное на уровне метеостанции атмосферное давление.
  • Tmin - Минимальная температура - минимум температуры воздуха на высоте 2 м над землей.
  • Tmax - Максимальная температура - максимум температуры воздуха на высоте 2 м над землей.
  • R - Количество осадков - Количество выпавших осадков за период времени, мм. При наведении курсора мыши на число - период времени, за который выпало указанное количество осадков.
  • R24 - Количество осадков - Количество выпавших осадков за 24 часа, мм.
  • S - Снежный покров - Высота снежного покрова, см. При наведении курсора мыши на число - состояние снежного покрова и степень покрытия местности в баллах.